Lapse_Rate
7.9 7.7 6.9 6.5 5.2 4.5 3.8 3.5 3.7 5.4 5.6 5.3 5.1 4.3 3.7 3.6 4.8 5.1 4.9 5.0 5.0 5.1 5.4 5.6 5.5 5.7 5.6
7.5 6.7 6.5 5.1 4.5 4.1 3.1 2.6 2.8 4.0 4.6 4.9 5.0 5.0 4.7 4.5 4.8 4.7 5.0 4.5 4.4 4.6 4.9 5.3 5.3 5.5 5.6
6.0 6.1 4.4 3.8 3.7 2.6 2.2 2.1 2.1 2.6 3.3 3.7 3.9 4.7 5.1 5.4 5.4 5.1 5.8 6.0 5.8 4.8 4.5 4.6 4.8 5.4 6.2
5.6 5.2 4.0 3.3 2.6 2.8 2.6 1.5 1.6 2.2 2.4 2.8 3.0 3.9 4.8 5.2 5.9 6.1 5.9 6.2 6.3 6.1 5.3 4.8 4.8 4.6 4.7
4.9 4.3 3.4 3.2 2.8 2.7 2.9 2.2 1.5 1.4 2.8 2.8 3.3 4.3 4.8 6.4 6.3 6.1 5.9 5.9 5.8 6.0 6.0 5.8 5.4 5.4 5.3
3.8 3.5 2.8 2.7 3.0 2.7 3.0 3.1 3.7 2.2 4.3 5.1 5.4 5.7 5.5 6.3 6.1 6.2 6.3 6.3 6.3 6.1 6.0 5.8 5.6 5.7 5.7
3.7 3.5 4.2 4.0 4.7 4.8 4.2 4.1 3.9 3.8 4.3 5.8 5.5 5.6 5.2 5.3 5.8 6.3 6.1 5.7 5.6 5.5 5.3 5.0 4.8 5.0 5.3
4.0 3.7 3.8 4.3 4.6 4.9 4.5 2.9 3.4 4.2 4.2 7.3 5.8 6.2 5.9 5.2 4.5 5.1 5.0 4.8 4.9 4.9 4.8 4.6 4.8 5.0 5.3
2.1 2.1 2.4 2.4 3.0 4.5 4.6 5.2 6.2 5.1 3.8 5.0 6.0 6.0 6.3 6.3 5.4 4.4 4.4 4.4 4.5 4.6 4.7 4.8 4.8 5.5 6.3
3.7 3.2 2.9 2.6 2.5 3.0 4.0 4.8 4.9 5.4 3.9 4.4 5.3 5.5 6.6 6.5 6.3 5.7 5.9 4.8 5.0 4.9 4.9 4.8 4.6 5.5 6.3
3.9 3.7 3.5 3.0 2.7 2.5 2.9 3.7 4.5 4.5 3.7 4.4 4.7 5.7 5.7 6.3 7.0 6.4 5.9 5.6 5.6 5.7 5.6 5.4 5.0 4.9 5.8
4.0 3.5 2.8 2.5 2.6 2.4 2.5 3.0 3.2 3.3 3.3 3.4 4.0 4.4 4.8 5.8 6.6 6.5 6.7 6.2 6.0 6.0 5.7 5.6 5.7 5.8 5.6
3.5 2.9 2.4 2.3 2.4 2.8 3.0 3.3 3.5 3.4 3.4 3.2 3.8 4.1 4.7 5.4 5.8 5.9 5.9 6.4 6.6 6.2 5.9 5.9 6.0 5.6 5.7
3.4 2.9 2.9 2.8 3.0 3.4 3.6 4.1 4.7 4.8 4.0 3.5 3.2 3.8 4.9 5.4 5.6 6.6 6.9 6.0 6.3 6.6 5.6 5.5 6.2 6.5 6.2
3.0 3.0 3.2 3.6 3.7 4.1 4.1 4.9 5.2 5.2 5.5 5.2 4.2 3.7 4.1 4.2 6.0 6.9 6.9 6.6 6.4 6.0 5.4 5.2 6.0 6.8 6.7
2.7 3.2 3.6 4.0 4.4 4.6 4.9 5.2 5.5 5.5 5.4 4.9 4.9 6.0 6.6 5.4 4.9 6.6 6.7 6.5 5.9 5.5 5.6 5.6 5.3 7.0 6.5
2.8 3.0 3.6 4.1 4.8 5.2 5.5 5.7 6.0 6.2 5.9 5.2 5.1 5.6 6.7 7.7 7.2 5.5 5.6 5.8 5.5 5.3 6.1 5.7 5.3 5.2 5.9
Wind_Speed
7 5 2 1 0 2 4 4 5 12 11 10 10 10 11 12 12 14 16 15 16 17 17 19 18 17 19
5 2 2 2 2 3 4 5 5 11 12 11 11 11 12 12 10 12 13 14 15 16 16 17 17 18 20
4 1 3 2 3 3 3 3 6 9 9 10 11 10 11 11 11 13 11 12 13 14 16 16 17 19 19
4 0 2 2 2 1 2 4 3 5 8 9 9 10 13 11 12 12 11 13 13 14 15 16 17 19 20
1 1 2 2 1 1 1 2 4 4 1 4 6 6 8 9 9 11 11 11 12 13 14 16 18 19 21
2 2 2 2 2 2 1 1 0 5 2 3 4 4 7 9 9 9 9 9 11 13 14 16 17 17 18
6 5 4 5 3 2 3 3 2 3 2 2 2 3 4 8 11 10 11 12 13 14 14 15 16 15 15
8 8 6 5 4 3 3 3 2 4 3 1 2 1 2 3 9 9 10 11 12 13 14 15 16 13 11
13 11 15 16 10 1 2 2 1 2 6 3 3 3 1 1 3 5 8 9 12 13 14 15 16 13 10
4 9 11 13 16 11 5 3 2 1 6 3 3 3 2 1 1 4 6 8 9 11 13 14 16 12 10
3 4 5 7 9 11 11 5 3 2 6 4 3 3 2 3 2 3 6 7 9 10 12 13 14 12 7
2 3 4 4 4 6 8 8 7 5 7 7 2 3 3 3 2 4 5 5 8 9 12 13 13 10 10
2 3 3 3 5 3 2 4 5 7 9 8 4 4 2 3 3 3 5 4 8 6 10 10 8 11 7
2 2 2 3 4 4 3 2 2 3 6 10 7 3 2 2 3 3 4 4 7 7 7 11 12 10 9
1 2 2 3 4 4 4 3 4 4 5 5 11 4 3 2 3 3 5 6 7 7 8 8 8 9 9
2 2 3 3 3 3 3 3 3 4 4 5 7 6 2 5 6 4 5 6 7 8 8 7 8 7 11
2 3 2 2 2 2 3 3 3 4 4 3 4 5 5 5 2 9 5 7 7 8 7 8 8 9 12
Wind_Direction
267 289 285 341 88 56 44 31 23 25 76 74 71 66 56 46 36 44 36 27 28 27 26 29 26 21 22
293 243 231 71 61 74 52 45 39 41 54 56 63 61 57 47 39 50 44 37 32 30 31 32 28 30 38
287 319 63 25 77 66 57 64 51 46 46 44 41 41 52 47 41 42 33 27 27 33 34 33 32 31 33
270 5 61 50 70 84 105 43 35 32 39 42 47 48 52 47 36 31 29 31 32 36 38 38 40 38 35
32 51 25 23 25 340 92 128 53 15 8 31 41 47 37 37 36 40 39 41 37 34 35 36 37 38 39
35 52 25 3 357 1 47 104 64 25 325 68 26 53 46 34 30 29 32 40 44 40 38 35 34 34 36
63 33 11 9 330 41 58 76 57 15 318 81 19 63 37 30 32 45 49 45 39 35 33 29 25 25 28
57 43 23 3 33 33 74 103 129 61 358 301 4 57 48 68 38 41 44 38 32 28 22 16 10 4 10
70 62 51 46 35 292 43 286 165 61 23 329 9 309 263 71 57 37 35 22 21 18 12 5 358 347 351
55 45 42 41 41 41 14 34 23 159 24 334 344 350 273 179 4 4 344 1 1 6 4 1 0 353 347
52 40 35 35 34 33 34 32 23 57 15 346 330 331 294 304 302 342 347 351 355 352 351 349 351 354 338
45 34 25 22 21 34 38 44 47 42 2 3 327 342 327 305 318 340 336 333 350 347 343 338 340 338 331
57 48 32 18 9 7 14 33 56 39 24 13 356 341 320 312 315 330 336 333 343 340 338 333 327 326 324
69 61 52 34 35 22 22 360 5 22 23 18 4 343 318 312 307 325 341 327 330 340 336 319 314 307 304
84 78 70 61 47 27 23 20 34 1 359 1 357 311 281 276 285 300 323 324 332 331 329 316 310 304 307
96 96 90 72 57 45 28 27 16 6 357 355 351 346 314 216 226 294 317 320 324 324 315 310 304 314 316
112 105 100 83 68 40 15 5 353 348 349 348 349 357 348 334 316 233 292 317 316 313 313 306 300 298 309